This demonstration page uses our WeatherBlox Daily Observations layout. Learn more.

Left ArrowRight Arrow

41.12389, -100.76542

Hourly Observations for January 12, 2019

Temp ( °F °C ) Dew Point ( °F °C ) Humidity (%) Winds ( mph kmh ) Pressure ( in mb ) Visibility ( mi km ) Precip ( " mm )
12:53 am 00:53 Cloudy 33 0.6 27 -2.8 78 78 VRB 3 6 30.18 1022 10 16 0.00 0.00
1:53 am 01:53 Cloudy 32 0 27 -2.8 82 82 NE 6 9 30.19 1022 10 16 0.00 0.00
2:53 am 02:53 Mostly Cloudy 31 -0.6 26 -3.3 82 82 NNE 7 11 30.21 1023 10 16 0.00 0.00
3:53 am 03:53 Cloudy 30 -1.1 24 -4.4 79 79 NNE 10 17 30.22 1024 10 16 0.00 0.00
4:53 am 04:53 Cloudy 28 -2.2 23 -5 81 81 NNE 12 19 30.22 1024 10 16 0.00 0.00
5:53 am 05:53 Cloudy 27 -2.8 23 -5 85 85 N 9 15 30.23 1024 10 16 0.00 0.00
6:53 am 06:53 Clear 24 -4.4 21 -6.1 88 88 N 7 11 30.25 1025 9 14 0.00 0.00
7:03 am 07:03 Partly Cloudy 24 -4.4 21 -6.1 88 88 N 9 15 30.33 1027 8 13 0.00 0.00
7:12 am 07:12 Mostly Cloudy 25 -3.9 22 -5.6 88 88 NNE 9 15 30.33 1027 8 13 0.00 0.00
7:53 am 07:53 Cloudy with Mist and Fog 26 -3.3 23 -5 88 88 NNE 12 19 30.27 1025 5 8 0.00 0.00
8:53 am 08:53 Cloudy with Mist and Fog 26 -3.3 24 -4.4 92 92 NNE 8 13 30.29 1026 2 3 0.00 0.00
9:53 am 09:53 Cloudy with Mist and Fog 27 -2.8 25 -3.9 92 92 NE 7 11 30.32 1027 3 4 0.00 0.00
10:02 am 10:02 Cloudy with Mist and Fog 28 -2.2 25 -3.9 88 88 NNE 9 15 30.36 1028 4 6 0.00 0.00
10:53 am 10:53 Cloudy 28 -2.2 24 -4.4 85 85 N 13 20 30.34 1027 10 16 0.00 0.00
11:53 am 11:53 Cloudy 28 -2.2 24 -4.4 85 85 NE 14 22 30.32 1027 10 16 0.00 0.00
12:53 pm 12:53 Cloudy 28 -2.2 24 -4.4 85 85 N 13 20 30.30 1026 10 16 0.00 0.00
1:53 pm 13:53 Cloudy 28 -2.2 24 -4.4 85 85 NNE 12 19 30.30 1026 10 16 0.00 0.00
2:53 pm 14:53 Cloudy 29 -1.7 24 -4.4 82 82 NNE 10 17 30.30 1026 10 16 0.00 0.00
3:53 pm 15:53 Cloudy 29 -1.7 24 -4.4 82 82 NE 10 17 30.32 1027 10 16 0.00 0.00
4:53 pm 16:53 Cloudy 28 -2.2 24 -4.4 85 85 NE 8 13 30.34 1027 10 16 0.00 0.00
5:53 pm 17:53 Cloudy 27 -2.8 24 -4.4 89 89 NE 7 11 30.36 1028 10 16 0.00 0.00
6:53 pm 18:53 Cloudy 26 -3.3 23 -5 88 88 NNE 7 11 30.39 1029 10 16 0.00 0.00
7:53 pm 19:53 Cloudy 26 -3.3 23 -5 88 88 NNE 5 7 30.39 1029 10 16 0.00 0.00
8:53 pm 20:53 Cloudy 25 -3.9 23 -5 92 92 Calm 30.40 1029 9 14 0.00 0.00
9:42 pm 21:42 Cloudy 25 -3.9 23 -5 92 92 E 3 6 30.45 1031 8 13 0.00 0.00
9:53 pm 21:53 Cloudy 25 -3.9 23 -5 92 92 Calm 30.41 1030 8 13 0.00 0.00
10:53 pm 22:53 Cloudy 25 -3.9 22 -5.6 88 88 ESE 3 6 30.41 1030 7 11 0.00 0.00
11:53 pm 23:53 Cloudy 25 -3.9 23 -5 92 92 SW 5 7 30.42 1030 7 11 0.00 0.00

Powered by AerisWeather